This demonstration page uses our WeatherBlox Daily Observations layout. Learn more.

Hourly Observations for February 1, 2020

Temp ( °F °C ) Dew Point ( °F °C ) Humidity (%) Winds ( mph kmh ) Pressure ( in mb ) Visibility ( mi km ) Precip ( " mm )
12:15 am 00:15 Clear 31 -0.5 26 -3.6 80 80 SSW 6 9 30.17 1022 10 16.0934 0 0
12:35 am 00:35 Clear 32 -0.2 25 -4.1 75 75 SW 6 9 30.17 1022 10 16.0934 0 0
12:55 am 00:55 Clear 31 -0.5 24 -4.7 74 74 SW 5 7 30.16 1021 10 16.0934 0 0
1:15 am 01:15 Clear 31 -0.4 23 -4.8 72 72 SW 5 7 30.16 1021 10 16.0934 0 0
1:35 am 01:35 Clear 31 -0.3 24 -4.7 73 73 SW 3 6 30.15 1021 10 16.0934 0 0
1:55 am 01:55 Clear 31 -0.5 24 -4.7 74 74 SW 5 7 30.15 1021 10 16.0934 0 0
2:15 am 02:15 Clear 32 -0.1 23 -5 70 70 WSW 5 7 30.15 1021 10 16.0934 0 0
2:35 am 02:35 Clear 32 -0.2 23 -5.1 70 70 W 7 11 30.14 1021 10 16.0934 0 0
2:55 am 02:55 Clear 30 -1 23 -5 75 75 W 8 13 30.15 1021 10 16.0934 0 0
3:15 am 03:15 Clear 30 -1.1 23 -4.9 76 76 W 8 13 30.15 1021 10 16.0934 0 0
3:35 am 03:35 Clear 32 -0.2 24 -4.7 72 72 W 7 11 30.14 1021 10 16.0934 0 0
3:55 am 03:55 Clear 32 0.2 24 -4.5 71 71 W 7 11 30.12 1020 10 16.0934 0 0
4:15 am 04:15 Clear 31 -0.6 24 -4.6 75 75 W 8 13 30.12 1020 10 16.0934 0 0
4:35 am 04:35 Clear 32 -0.2 24 -4.3 74 74 W 7 11 30.12 1020 10 16.0934 0 0
4:55 am 04:55 Clear 31 -0.6 24 -4.2 77 77 W 7 11 30.11 1020 10 16.0934 0 0
5:15 am 05:15 Clear 31 -0.6 25 -4 78 78 W 7 11 30.11 1020 10 16.0934 0 0
5:35 am 05:35 Clear 31 -0.8 25 -3.9 80 80 W 7 11 30.11 1020 10 16.0934 0 0
5:55 am 05:55 Clear 31 -0.7 25 -3.7 80 80 W 7 11 30.12 1020 10 16.0934 0 0
6:15 am 06:15 Clear 31 -0.4 26 -3.5 80 80 W 7 11 30.12 1020 10 16.0934 0 0
6:35 am 06:35 Clear 30 -1.2 25 -3.8 83 83 W 6 9 30.12 1020 10 16.0934 0 0
6:55 am 06:55 Clear 31 -0.6 26 -3.2 83 83 W 6 9 30.11 1020 10 16.0934 0 0
7:15 am 07:15 Clear 31 -0.3 26 -3.2 81 81 W 5 7 30.11 1020 10 16.0934 0 0
7:35 am 07:35 Clear 32 -0.2 27 -3 82 82 W 6 9 30.11 1020 10 16.0934 0 0
7:55 am 07:55 Sunny 32 -0.1 26 -3.2 80 80 WSW 5 7 30.1 1019 10 16.0934 0 0
8:15 am 08:15 Sunny 32 -0.1 26 -3.1 80 80 WSW 5 7 30.11 1019 10 16.0934 0 0
8:35 am 08:35 Sunny 33 0.6 27 -2.6 79 79 WSW 5 7 30.09 1019 10 16.0934 0 0
8:55 am 08:55 Sunny 35 1.5 28 -2.1 77 77 WSW 7 11 30.08 1019 10 16.0934 0 0
9:15 am 09:15 Sunny 36 2 28 -2 75 75 WSW 6 9 30.08 1018 10 16.0934 0 0
9:35 am 09:35 Sunny 37 2.5 29 -1.7 74 74 SW 8 13 30.06 1018 10 16.0934 0 0
9:55 am 09:55 Sunny 38 3.3 30 -1.3 72 72 W 9 15 30.04 1017 10 16.0934 0 0
10:15 am 10:15 Sunny 40 4.2 31 -0.7 71 71 WSW 12 19 30.04 1017 10 16.0934 0 0
10:35 am 10:35 Sunny 41 5.2 32 0 69 69 W 12 19 30.02 1016 10 16.0934 0 0
10:55 am 10:55 Sunny 43 6.1 32 0 65 65 W 10 17 30.01 1016 10 16.0934 0 0
11:15 am 11:15 Sunny 44 6.9 33 0.5 64 64 W 14 22 30 1016 10 16.0934 0 0
11:35 am 11:35 Sunny 46 7.7 34 0.9 62 62 W 14 22 30 1016 10 16.0934 0 0
11:55 am 11:55 Sunny 47 8.4 34 1.2 61 61 W 12 19 29.99 1015 10 16.0934 0 0
12:15 pm 12:15 Sunny 49 9.2 35 1.7 60 60 W 12 19 29.97 1015 10 16.0934 0 0
12:35 pm 12:35 Sunny 51 10.4 35 1.7 55 55 W 15 24 29.94 1014 10 16.0934 0 0
12:55 pm 12:55 Sunny 53 11.5 36 2.2 53 53 W 15 24 29.91 1013 10 16.0934 0 0
1:15 pm 13:15 Sunny 54 12.1 37 2.6 53 53 W 14 22 29.89 1012 10 16.0934 0 0
1:35 pm 13:35 Sunny 54 12.2 38 3.2 54 54 WSW 8 13 29.88 1012 10 16.0934 0 0
1:55 pm 13:55 Sunny 55 12.8 37 2.5 50 50 W 15 24 29.88 1012 10 16.0934 0 0
2:15 pm 14:15 Sunny 56 13.6 38 3.1 49 49 W 13 20 29.86 1011 10 16.0934 0 0
2:35 pm 14:35 Sunny 58 14.2 38 3.1 47 47 W 13 20 29.85 1011 10 16.0934 0 0
2:55 pm 14:55 Sunny 58 14.7 37 2.8 45 45 W 16 26 29.84 1011 10 16.0934 0 0
3:15 pm 15:15 Sunny 58 14.4 38 3.2 47 47 W 12 19 29.84 1011 10 16.0934 0 0
3:35 pm 15:35 Sunny 58 14.7 37 2.5 44 44 W 12 19 29.84 1011 10 16.0934 0 0
3:55 pm 15:55 Sunny 59 14.8 37 2.7 44 44 WSW 7 11 29.83 1010 10 16.0934 0 0
4:15 pm 16:15 Sunny 58 14.7 37 2.5 44 44 WSW 9 15 29.83 1010 10 16.0934 0 0
4:35 pm 16:35 Sunny 57 14 36 2.1 45 45 WSW 10 17 29.85 1011 10 16.0934 0 0
4:55 pm 16:55 Sunny 56 13.5 35 1.9 46 46 WSW 10 17 29.84 1011 10 16.0934 0 0
5:15 pm 17:15 Sunny 55 12.7 35 1.8 48 48 W 10 17 29.85 1011 10 16.0934 0 0
6:35 pm 18:35 Clear 54 12 33 0.7 46 46 WSW 12 19 29.86 1011 10 16.0934 0 0
6:55 pm 18:55 Clear 52 11.1 33 0.6 49 49 W 14 22 29.88 1012 10 16.0934 0 0
7:15 pm 19:15 Clear 53 11.4 32 0 46 46 W 14 22 29.88 1012 10 16.0934 0 0
8:35 pm 20:35 Clear 48 9.1 31 -0.5 51 51 W 8 13 29.89 1012 10 16.0934 0 0
8:55 pm 20:55 Clear 49 9.5 31 -0.7 49 49 W 12 19 29.88 1012 10 16.0934 0 0
9:15 pm 21:15 Clear 50 10.1 30 -1 46 46 W 15 24 29.88 1012 10 16.0934 0 0
9:35 pm 21:35 Clear 49 9.7 30 -1 48 48 W 13 20 29.88 1012 10 16.0934 0 0
9:55 pm 21:55 Clear 47 8.4 30 -1 52 52 W 13 20 29.89 1012 10 16.0934 0 0
10:15 pm 22:15 Clear 47 8.5 30 -1.3 50 50 W 14 22 29.88 1012 10 16.0934 0 0
10:35 pm 22:35 Clear 48 8.7 29 -1.6 49 49 WSW 12 19 29.87 1012 10 16.0934 0 0
10:55 pm 22:55 Clear 46 7.8 29 -1.7 51 51 W 13 20 29.88 1012 10 16.0934 0 0
11:15 pm 23:15 Clear 44 6.5 29 -1.6 57 57 W 14 22 29.89 1012 10 16.0934 0 0
11:35 pm 23:35 Clear 42 5.6 29 -1.6 60 60 W 12 19 29.9 1013 10 16.0934 0 0
11:55 pm 23:55 Clear 42 5.4 29 -1.7 61 61 W 12 19 29.9 1013 10 16.0934 0 0

Powered by AerisWeather